Lid_Strength_Index
11 13 14 12 13 13 14 15 15 14 12 13 14 13 11 12 13 13 13 13 13 12 13 12 11 11 11 10 9 9 8 8 8 8 9 9 11 11 11 11 10 10 10 11
12 14 11 10 11 12 13 15 14 13 12 13 13 14 13 13 13 12 12 12 12 14 14 13 12 12 11 10 10 9 9 8 8 8 10 11 12 13 12 12 13 13 12 13
13 11 10 11 12 13 14 15 15 14 13 14 15 15 15 13 12 12 12 11 12 13 14 14 13 12 12 11 10 9 8 8 9 11 12 13 13 13 13 13 14 14 14 14
12 11 11 12 13 12 15 12 13 13 15 16 15 18 16 14 14 14 12 12 12 13 13 13 12 13 12 11 10 8 8 10 11 11 12 12 12 13 14 14 15 15 15 15
13 13 13 14 13 12 14 13 13 14 16 18 17 19 16 14 14 13 11 12 13 13 14 14 13 12 12 11 9 8 10 11 11 11 11 12 14 14 15 16 16 16 16 15
13 12 12 12 12 12 12 14 14 16 17 20 17 17 17 16 14 13 11 12 14 14 14 13 12 12 13 12 11 11 11 12 12 12 13 13 14 15 16 16 16 17 17 17
14 14 13 12 14 13 13 15 19 21 21 20 18 19 15 14 13 13 12 12 15 15 15 14 14 13 13 13 13 11 12 12 12 13 13 13 14 15 16 16 16 17 17 18
17 18 14 13 13 14 15 15 19 23 22 20 18 20 16 14 13 12 13 14 15 15 14 14 14 13 13 13 13 12 12 13 13 13 14 14 15 15 15 16 16 17 17 17
17 16 14 14 13 12 16 17 14 17 25 23 19 17 14 14 14 14 13 15 16 15 15 15 14 14 14 14 13 12 13 13 14 14 14 15 15 15 16 16 17 17 17 17
14 17 15 15 13 14 15 14 18 18 24 25 20 19 16 15 14 13 14 15 16 15 16 16 15 15 15 15 14 13 13 14 14 14 14 15 15 15 16 17 17 17 18 18
13 14 17 15 16 16 16 17 16 16 19 22 23 18 15 14 13 13 13 15 15 15 16 16 16 15 15 15 16 15 14 15 15 15 15 16 16 17 17 17 18 18 18 18
12 14 19 16 15 14 15 15 15 17 19 18 19 16 14 14 14 13 13 14 15 15 16 16 16 16 16 17 16 16 16 16 16 16 16 16 17 17 18 18 18 18 18 18
11 14 18 17 15 15 15 15 13 14 15 16 20 16 15 15 14 14 14 15 15 16 17 16 17 17 16 16 16 16 16 16 16 16 16 17 17 17 18 18 18 18 19 19
9 13 16 17 16 14 17 16 15 13 16 16 15 14 13 15 14 13 15 15 15 15 16 16 17 17 16 16 16 17 16 16 16 16 17 17 18 18 18 18 18 18 18 19
10 15 13 13 14 15 16 15 14 14 14 15 14 14 12 11 11 10 12 14 15 15 16 16 16 17 16 16 16 17 16 16 16 17 17 17 17 17 18 18 18 18 18 18
10 15 13 15 13 13 14 14 15 14 13 12 12 13 9 11 11 12 12 13 14 14 15 15 15 16 16 16 17 17 16 16 16 17 17 17 17 17 17 17 17 18 18 18
12 14 15 17 14 14 17 14 13 12 12 13 14 11 10 11 11 11 11 13 13 13 13 14 15 15 16 16 16 17 16 16 16 17 17 17 17 17 17 17 17 17 17 17
14 13 14 17 15 21 14 13 11 12 11 10 11 10 10 10 9 10 11 12 12 12 13 13 13 14 15 15 16 16 16 17 17 16 16 16 16 16 17 17 17 17 17 18
13 14 15 17 18 15 14 16 15 14 13 11 11 10 9 9 13 10 11 12 11 12 12 12 12 13 14 15 15 16 17 17 16 17 16 16 16 16 16 16 17 17 17 17
13 12 14 16 19 20 16 17 16 13 15 17 12 11 12 14 15 11 11 13 13 12 13 13 14 14 15 15 15 16 17 16 17 16 16 15 15 15 16 16 16 16 16 16
16 16 17 16 17 15 13 15 14 16 16 19 17 16 16 15 12 14 14 14 15 14 14 14 14 14 14 15 15 16 16 16 15 15 15 15 15 15 15 15 15 15 16 17
16 16 17 16 17 19 13 15 14 13 16 16 15 15 15 14 14 15 16 15 14 14 14 14 14 15 15 14 14 15 15 14 15 15 15 15 14 14 14 14 14 16 16 17
15 13 16 14 14 14 15 15 15 15 15 16 15 14 14 14 15 16 16 16 15 16 15 15 15 16 16 14 13 14 14 15 15 15 15 14 14 14 14 15 17 18 18 18
15 14 13 13 13 13 14 14 13 14 15 15 15 14 15 15 16 16 17 16 16 17 16 17 16 17 18 17 16 16 16 16 15 15 16 17 17 18 18 18 18 18 19 20
14 13 15 15 14 14 13 13 12 12 14 15 15 15 15 15 16 16 17 17 16 17 17 17 16 16 18 18 19 19 18 17 18 19 20 20 20 20 22 21 21 20 22 20
15 14 14 14 12 11 12 12 12 12 14 15 15 16 15 15 15 16 17 16 17 17 17 17 17 17 20 20 21 21 21 19 19 21 21 21 21 22 21 21 22 16 16 14